OBJECT A, 61238

Orbit data source: Space-Track

You're viewing an Uncataloged Satellite

Recently launched and/or uncataloged satellites may have evolving metadata. Metadata may include but not limited to: Owner, Maufacturer, Bus, Motor, and Mission.

OBJECT A, 61238 is a Chinese satellite in SSO that was launched on Tue, 24 Sep 2024 UTC via a LIJIAN-1 launch vehicle from the Jiuquan Satellite Launch Center, China (JSC). Unknown objects in Earth's orbit typically refer to objects detected orbiting the Earth but have not yet been identified or cataloged. These objects could be anything from previously untracked satellites, spent rocket stages, debris from satellite collisions, or even natural meteoroids temporarily captured by Earth's gravity.

Loading next visibility...
OBJECT A details
Identifier
61238, 2024-174A
Orbit
SSO
Last TLE update10 hours ago
Origin
Flag of CNZHWK/JIG (CN / PRC)
ManufacturerZHWK/HITSAT
MissionOperational spacecraft
Bus & MotorZK1, Unknown motor
Mass~250 kg wet, ~250 kg dry
Launch date (UTC)
2024-09-24 (3 months ago)
Launch vehicle
LIJIAN-1
Launch site
Jiuquan Satellite Launch Center, China (JSC)
Object typeUnknown
Shape & HBRUnknown
Radar Cross SectionLarge (>1 m²)

Expand to show TLE details & history

TLE from 10 hours ago
0 OBJECT A
1 61238U 24174A   24356.14011472  .00008718  00000-0  42735-3 0  9996
2 61238  97.4549   0.0436 0014890 353.3601   6.7433 15.18274866 13225
Epoch: 2024-12-21T03:21Z
Definitive object data (Epoch: 2024-12-21T03:21:45.911Z)
Latitude-0.00008°
Longitude-140.59324°
Altitude503.952 km
Speed7.618 km/s
True Right ascension00h 00m 10s
True Declination0° 00' 00"
Sunlit
Object was in daylight at TLE epoch
Visualization TLE readout
Latitude5.70136°
Longitude-140.94694°
Altitude503.597 km
Speed7.618 km/s
Apparent Right ascension23h 57m 00s
Apparent Declination-16° 06' 17"
Sunlit
Object is in daylight
Visualization observer readout
Local Sidereal Time11:54:34
Azimuth358.546° N
Elevation-66.183°
Doppler factor1
Orbital elements
Apogee altitude518.278 km
Perigee altitude497.771 km
Semi-major axis6,886.161 km
Eccentricity0.001489
Inclination97.4549°
RAAN0.0436°
Arg. of periapsis353.3601°
True anomaly6.76337°
Mean anomaly6.7433°
Eccentric anomaly6.75333°
Mean motion3.7982 °/min
BSTAR0.00042735
Orbital period94.78 mins
Loading maneuver chart data...
Loading historical data...
Loading historical data...
Loading historical data...
Loading historical data...
Loading historical data...
Loading historical data...
Loading historical data...

OBJECT A Visibility forecast

Observer location: undefined°, undefined

Span
Click to sort rows by Start time (UTC) header in descending order
Start Az.
Max El. time (UTC)
Max El. Az.
Max El.
End time (UTC)
End Az.
6 mins2024-12-21 13:24:41.653Z9.906° NNE2024-12-21 13:27:41.653Z340.973° N44.153°2024-12-21 13:30:41.653Z196.479° SSW
5 mins2024-12-22 00:04:41.653Z124.75° SE2024-12-22 00:06:41.653Z63.211° ENE30.624°2024-12-22 00:09:41.653Z6.21° NNE
|